| time (UTC) | temp F | wind direction | speed knots | gust knots | rain 1hr in | rain 24hr in | rain mn in | humidity % | barometer mb |
| 20260503013516 | 42 | 208 | 0.9 | 2.6 | 0.00 | 0.00 | 0.00 | 52 | 1014.8 |
| 20260503013056 | 43 | 232 | 1.7 | 3.5 | 0.00 | 0.00 | 0.00 | 51 | 1014.8 |
| 20260503012516 | 43 | 244 | 0.9 | 3.5 | 0.00 | 0.00 | 0.00 | 49 | 1014.9 |
| 20260503012016 | 43 | 239 | 1.7 | 2.6 | 0.00 | 0.00 | 0.00 | 50 | 1014.8 |
| 20260503011517 | 44 | 244 | 1.7 | 2.6 | 0.00 | 0.00 | 0.00 | 49 | 1014.8 |
| 20260503011017 | 44 | 257 | 1.7 | 3.5 | 0.00 | 0.00 | 0.00 | 47 | 1014.8 |
| 20260503010516 | 44 | 258 | 2.6 | 3.5 | 0.00 | 0.00 | 0.00 | 45 | 1014.8 |
| 20260503010016 | 44 | 257 | 2.6 | 4.3 | 0.00 | 0.00 | 0.00 | 44 | 1014.9 |
| 20260503005536 | 45 | 252 | 2.6 | 6.1 | 0.00 | 0.00 | 0.00 | 44 | 1014.9 |
| 20260503005017 | 45 | 257 | 2.6 | 6.1 | 0.00 | 0.00 | 0.00 | 43 | 1014.9 |
| 20260503004516 | 45 | 266 | 2.6 | 6.1 | 0.00 | 0.00 | 0.00 | 42 | 1014.9 |
| 20260503004016 | 46 | 269 | 2.6 | 6.1 | 0.00 | 0.00 | 0.00 | 41 | 1014.9 |
| 20260503003556 | 46 | 266 | 1.7 | 6.1 | 0.00 | 0.00 | 0.00 | 41 | 1014.9 |
| 20260503003016 | 46 | 263 | 3.5 | 6.1 | 0.00 | 0.00 | 0.00 | 40 | 1014.9 |
| 20260503002516 | 47 | 276 | 1.7 | 5.2 | 0.00 | 0.00 | 0.00 | 39 | 1014.9 |
| 20260503002016 | 47 | 287 | 2.6 | 7.0 | 0.00 | 0.00 | 0.00 | 37 | 1014.9 |
| 20260503001517 | 47 | 283 | 4.3 | 7.0 | 0.00 | 0.00 | 0.00 | 36 | 1014.9 |
| 20260503001016 | 47 | 295 | 4.3 | 7.8 | 0.00 | 0.00 | 0.00 | 36 | 1014.8 |
| 20260503000516 | 48 | 318 | 4.3 | 7.8 | 0.00 | 0.00 | 0.00 | 35 | 1014.9 |
| 20260503000016 | 48 | 304 | 3.5 | 7.8 | 0.00 | 0.00 | 0.00 | 34 | 1014.8 |
| 20260502235516 | 48 | 328 | 2.6 | 5.2 | 0.00 | 0.00 | 0.00 | 34 | 1014.8 |
| 20260502235016 | 48 | 332 | 2.6 | 9.6 | 0.00 | 0.00 | 0.00 | 36 | 1014.7 |
| 20260502234516 | 48 | 321 | 5.2 | 10.4 | 0.00 | 0.00 | 0.00 | 34 | 1014.8 |
| 20260502234015 | 48 | 322 | 5.2 | 10.4 | 0.00 | 0.00 | 0.00 | 34 | 1014.8 |
| 20260502233517 | 48 | 303 | 5.2 | 10.4 | 0.00 | 0.00 | 0.00 | 34 | 1014.8 |
| 20260502233016 | 48 | 308 | 6.1 | 10.4 | 0.00 | 0.00 | 0.00 | 33 | 1014.8 |
| 20260502232515 | 48 | 314 | 5.2 | 8.7 | 0.00 | 0.00 | 0.00 | 33 | 1014.8 |
| 20260502232016 | 48 | 348 | 5.2 | 11.3 | 0.00 | 0.00 | 0.00 | 35 | 1014.9 |
| 20260502231517 | 48 | 348 | 5.2 | 11.3 | 0.00 | 0.00 | 0.00 | 34 | 1014.9 |
| 20260502231036 | 48 | 296 | 7.0 | 12.2 | 0.00 | 0.00 | 0.00 | 32 | 1014.9 |
| 20260502230515 | 48 | 287 | 7.0 | 14.8 | 0.00 | 0.00 | 0.00 | 32 | 1014.9 |
| 20260502230015 | 49 | 308 | 7.0 | 14.8 | 0.00 | 0.00 | 0.00 | 33 | 1014.9 |
| 20260502225515 | 49 | 312 | 5.2 | 11.3 | 0.00 | 0.00 | 0.00 | 33 | 1015.0 |
| 20260502225035 | 49 | 319 | 6.1 | 11.3 | 0.00 | 0.00 | 0.00 | 33 | 1015.0 |
| 20260502224516 | 49 | 323 | 4.3 | 11.3 | 0.00 | 0.00 | 0.00 | 34 | 1015.1 |
| 20260502224017 | 48 | 321 | 6.1 | 12.2 | 0.00 | 0.00 | 0.00 | 32 | 1015.0 |
| 20260502223517 | 48 | 309 | 7.8 | 12.2 | 0.00 | 0.00 | 0.00 | 32 | 1015.1 |
| 20260502223015 | 49 | 313 | 7.8 | 12.2 | 0.00 | 0.00 | 0.00 | 31 | 1015.1 |
| 20260502222516 | 49 | 313 | 7.0 | 12.2 | 0.00 | 0.00 | 0.00 | 33 | 1015.2 |
| 20260502222016 | 49 | 341 | 6.1 | 12.2 | 0.00 | 0.00 | 0.00 | 33 | 1015.2 |
| 20260502221535 | 49 | 353 | 4.3 | 13.0 | 0.00 | 0.00 | 0.00 | 35 | 1015.2 |
| 20260502221015 | 48 | 330 | 7.8 | 13.9 | 0.00 | 0.00 | 0.00 | 34 | 1015.2 |
| 20260502220515 | 48 | 313 | 10.4 | 13.9 | 0.00 | 0.00 | 0.00 | 31 | 1015.1 |
| 20260502220036 | 48 | 310 | 7.0 | 13.0 | 0.00 | 0.00 | 0.00 | 31 | 1015.2 |
| 20260502215517 | 48 | 306 | 7.0 | 15.6 | 0.00 | 0.00 | 0.00 | 31 | 1015.2 |
| 20260502215015 | 49 | 345 | 9.6 | 15.6 | 0.00 | 0.00 | 0.00 | 33 | 1015.3 |
| 20260502214516 | 48 | 314 | 8.7 | 13.9 | 0.00 | 0.00 | 0.00 | 32 | 1015.3 |
| 20260502214016 | 48 | 309 | 6.1 | 13.0 | 0.00 | 0.00 | 0.00 | 32 | 1015.3 |
| 20260502213516 | 49 | 326 | 7.8 | 13.0 | 0.00 | 0.00 | 0.00 | 33 | 1015.3 |
| 20260502213015 | 48 | 326 | 7.0 | 14.8 | 0.00 | 0.00 | 0.00 | 33 | 1015.4 |
| 20260502212517 | 48 | 328 | 8.7 | 14.8 | 0.00 | 0.00 | 0.00 | 34 | 1015.3 |
| 20260502212015 | 48 | 295 | 4.3 | 13.9 | 0.00 | 0.00 | 0.00 | 38 | 1015.3 |
| 20260502211515 | 48 | 287 | 7.8 | 14.8 | 0.00 | 0.00 | 0.00 | 35 | 1015.5 |
| 20260502211017 | 48 | 309 | 7.8 | 14.8 | 0.00 | 0.00 | 0.00 | 36 | 1015.5 |
| 20260502210516 | 48 | 315 | 9.6 | 15.6 | 0.00 | 0.00 | 0.00 | 36 | 1015.5 |
| 20260502210015 | 47 | 300 | 8.7 | 16.5 | 0.00 | 0.00 | 0.00 | 37 | 1015.6 |
| 20260502205515 | 48 | 318 | 9.6 | 16.5 | 0.00 | 0.00 | 0.00 | 35 | 1015.6 |
| 20260502205016 | 48 | 318 | 7.8 | 13.0 | 0.00 | 0.00 | 0.00 | 36 | 1015.5 |
| 20260502204516 | 47 | 304 | 8.7 | 13.9 | 0.00 | 0.00 | 0.00 | 36 | 1015.6 |
| 20260502204015 | 48 | 327 | 8.7 | 14.8 | 0.00 | 0.00 | 0.00 | 37 | 1015.6 |
| 20260502203515 | 48 | 283 | 7.8 | 15.6 | 0.00 | 0.00 | 0.00 | 39 | 1015.7 |
| 20260502203015 | 48 | 296 | 8.7 | 15.6 | 0.00 | 0.00 | 0.00 | 37 | 1015.8 |
| 20260502202516 | 47 | 301 | 6.1 | 12.2 | 0.00 | 0.00 | 0.00 | 41 | 1015.7 |
| 20260502202015 | 47 | 304 | 7.0 | 13.0 | 0.00 | 0.00 | 0.00 | 41 | 1015.9 |
| 20260502201515 | 47 | 276 | 7.8 | 14.8 | 0.00 | 0.00 | 0.00 | 41 | 1015.9 |
| 20260502201015 | 47 | 320 | 9.6 | 17.4 | 0.00 | 0.00 | 0.00 | 36 | 1016.0 |
| 20260502200515 | 47 | 324 | 9.6 | 19.1 | 0.00 | 0.00 | 0.00 | 38 | 1016.1 |
| 20260502200015 | 48 | 266 | 9.6 | 19.1 | 0.00 | 0.00 | 0.00 | 40 | 1016.1 |
| 20260502195516 | 47 | 337 | 7.8 | 14.8 | 0.00 | 0.00 | 0.00 | 40 | 1016.2 |
| 20260502195016 | 47 | 281 | 9.6 | 19.1 | 0.00 | 0.00 | 0.00 | 40 | 1016.2 |
| 20260502194515 | 47 | 282 | 9.6 | 19.1 | 0.00 | 0.00 | 0.00 | 39 | 1016.4 |
| 20260502194035 | 47 | 298 | 8.7 | 14.8 | 0.00 | 0.00 | 0.00 | 38 | 1016.4 |
| 20260502193517 | 47 | 293 | 8.7 | 13.9 | 0.00 | 0.00 | 0.00 | 39 | 1016.5 |
| 20260502193016 | 47 | 298 | 9.6 | 13.9 | 0.00 | 0.00 | 0.00 | 39 | 1016.5 |
| 20260502192515 | 47 | 320 | 7.0 | 13.9 | 0.00 | 0.00 | 0.00 | 40 | 1016.6 |
| 20260502192015 | 47 | 301 | 8.7 | 13.9 | 0.00 | 0.00 | 0.00 | 41 | 1016.5 |
| 20260502191515 | 47 | 283 | 7.0 | 17.4 | 0.00 | 0.00 | 0.00 | 40 | 1016.6 |
| 20260502191015 | 47 | 284 | 8.7 | 18.2 | 0.00 | 0.00 | 0.00 | 40 | 1016.6 |
| 20260502190515 | 47 | 270 | 11.3 | 18.2 | 0.00 | 0.00 | 0.00 | 41 | 1016.6 |
| 20260502190015 | 46 | 314 | 10.4 | 15.6 | 0.00 | 0.00 | 0.00 | 43 | 1016.8 |
| 20260502185515 | 47 | 298 | 10.4 | 18.2 | 0.00 | 0.00 | 0.00 | 42 | 1016.7 |
| 20260502185015 | 47 | 266 | 12.2 | 18.2 | 0.00 | 0.00 | 0.00 | 45 | 1016.7 |
| 20260502184535 | 47 | 261 | 9.6 | 15.6 | 0.00 | 0.00 | 0.00 | 45 | 1016.8 |
| 20260502184015 | 46 | 277 | 7.8 | 15.6 | 0.00 | 0.00 | 0.00 | 42 | 1016.8 |
| 20260502183515 | 46 | 265 | 9.6 | 15.6 | 0.00 | 0.00 | 0.00 | 45 | 1016.8 |
| 20260502182516 | 46 | 290 | 12.2 | 18.2 | 0.00 | 0.00 | 0.00 | 46 | 1016.9 |
| 20260502182016 | 46 | 295 | 11.3 | 17.4 | 0.00 | 0.00 | 0.00 | 44 | 1016.9 |
| 20260502181535 | 46 | 300 | 10.4 | 15.6 | 0.00 | 0.00 | 0.00 | 45 | 1016.9 |
| 20260502181016 | 46 | 311 | 7.0 | 13.0 | 0.00 | 0.00 | 0.00 | 45 | 1016.9 |
| 20260502180515 | 46 | 276 | 7.0 | 13.9 | 0.00 | 0.00 | 0.00 | 46 | 1016.9 |
| 20260502170516 | 45 | 326 | 6.1 | 11.3 | 0.00 | 0.00 | 0.00 | 45 | 1017.2 |
| 20260502164017 | 44 | 307 | 8.7 | 12.2 | 0.00 | 0.00 | 0.00 | 45 | 1017.3 |
| 20260502163517 | 44 | 291 | 5.2 | 12.2 | 0.00 | 0.00 | 0.00 | 47 | 1017.3 |
| 20260502163017 | 44 | 303 | 7.8 | 13.0 | 0.00 | 0.00 | 0.00 | 47 | 1017.4 |
| 20260502162518 | 44 | 316 | 7.0 | 13.0 | 0.00 | 0.00 | 0.00 | 46 | 1017.4 |
| 20260502162038 | 44 | 322 | 7.0 | 12.2 | 0.00 | 0.00 | 0.00 | 46 | 1017.5 |
| 20260502161519 | 44 | 322 | 4.3 | 13.0 | 0.00 | 0.00 | 0.00 | 50 | 1017.5 |
| 20260502161017 | 44 | 309 | 7.8 | 13.0 | 0.00 | 0.00 | 0.00 | 49 | 1017.7 |
| 20260502160516 | 44 | 336 | 5.2 | 8.7 | 0.00 | 0.00 | 0.00 | 49 | 1017.5 |
| 20260502152017 | 42 | 285 | 6.1 | 11.3 | 0.00 | 0.00 | 0.00 | 50 | 1017.5 |
| 20260502151517 | 42 | 298 | 7.8 | 11.3 | 0.00 | 0.00 | 0.00 | 50 | 1017.6 |
| 20260502151117 | 42 | 282 | 7.0 | 10.4 | 0.00 | 0.00 | 0.00 | 52 | 1017.6 |
| 20260502150517 | 43 | 346 | 5.2 | 10.4 | 0.00 | 0.00 | 0.00 | 53 | 1017.6 |
| 20260502130516 | 39 | 3 | 6.1 | 10.4 | 0.00 | 0.00 | 0.00 | 73 | 1017.8 |
| 20260502123518 | 38 | 27 | 0.9 | 3.5 | 0.00 | 0.00 | 0.00 | 77 | 1017.8 |
| 20260502123018 | 38 | 27 | 1.7 | 3.5 | 0.00 | 0.00 | 0.00 | 78 | 1017.7 |
| 20260502122516 | 38 | 10 | 0.9 | 3.5 | 0.00 | 0.00 | 0.00 | 79 | 1017.7 |
| 20260502122037 | 37 | 22 | 0.0 | 4.3 | 0.00 | 0.00 | 0.00 | 79 | 1017.8 |
| 20260502121516 | 37 | 9 | 1.7 | 4.3 | 0.00 | 0.00 | 0.00 | 80 | 1017.7 |
| 20260502121016 | 37 | 5 | 1.7 | 4.3 | 0.00 | 0.00 | 0.00 | 82 | 1017.6 |
| 20260502120516 | 36 | 10 | 1.7 | 3.5 | 0.00 | 0.00 | 0.00 | 83 | 1017.6 |
| 20260502115516 | 34 | 0.0 | 0.0 | 0.00 | 0.00 | 0.00 | 87 | 1017.5 | |
| 20260502115038 | 34 | 0.0 | 0.0 | 0.00 | 0.00 | 0.00 | 87 | 1017.4 | |
| 20260502114518 | 33 | 0.0 | 0.0 | 0.00 | 0.00 | 0.00 | 87 | 1017.5 | |
| 20260502114016 | 33 | 0.0 | 0.0 | 0.00 | 0.00 | 0.00 | 86 | 1017.4 | |
| 20260502113518 | 32 | 0.0 | 0.0 | 0.00 | 0.00 | 0.00 | 87 | 1017.4 | |
| 20260502113016 | 32 | 0.0 | 0.0 | 0.00 | 0.00 | 0.00 | 86 | 1017.4 | |
| 20260502112538 | 32 | 0.0 | 0.0 | 0.00 | 0.00 | 0.00 | 87 | 1017.3 | |
| 20260502112016 | 31 | 0.0 | 0.0 | 0.00 | 0.00 | 0.00 | 86 | 1017.3 | |
| 20260502111516 | 31 | 0.0 | 0.0 | 0.00 | 0.00 | 0.00 | 86 | 1017.3 | |
| 20260502111036 | 31 | 0.0 | 0.0 | 0.00 | 0.00 | 0.00 | 85 | 1017.3 | |
| 20260502110536 | 30 | 0.0 | 0.0 | 0.00 | 0.00 | 0.00 | 85 | 1017.3 | |
| 20260502110016 | 30 | 0.0 | 0.0 | 0.00 | 0.00 | 0.00 | 85 | 1017.2 | |
| 20260502105516 | 31 | 0.0 | 0.0 | 0.00 | 0.00 | 0.00 | 84 | 1017.2 | |
| 20260502105016 | 31 | 0.0 | 0.0 | 0.00 | 0.00 | 0.00 | 84 | 1017.4 | |
| 20260502104556 | 31 | 0.0 | 0.0 | 0.00 | 0.00 | 0.00 | 83 | 1017.3 | |
| 20260502104017 | 31 | 0.0 | 0.0 | 0.00 | 0.00 | 0.00 | 82 | 1017.3 | |
| 20260502103516 | 31 | 0.0 | 0.0 | 0.00 | 0.00 | 0.00 | 81 | 1017.3 | |
| 20260502103016 | 31 | 0.0 | 0.0 | 0.00 | 0.00 | 0.00 | 81 | 1017.2 | |
| 20260502102516 | 32 | 0.0 | 0.0 | 0.00 | 0.00 | 0.00 | 80 | 1017.2 | |
| 20260502102016 | 32 | 0.0 | 0.0 | 0.00 | 0.00 | 0.00 | 80 | 1017.1 | |
| 20260502101516 | 32 | 0.0 | 0.0 | 0.00 | 0.00 | 0.00 | 80 | 1017.2 | |
| 20260502101016 | 32 | 0.0 | 0.0 | 0.00 | 0.00 | 0.00 | 80 | 1017.2 | |
| 20260502100516 | 32 | 0.0 | 0.0 | 0.00 | 0.00 | 0.00 | 80 | 1017.2 | |
| 20260502091516 | 34 | 0.0 | 0.0 | 0.00 | 0.00 | 0.00 | 76 | 1017.1 | |
| 20260502091016 | 34 | 0.0 | 0.0 | 0.00 | 0.00 | 0.00 | 76 | 1017.0 | |
| 20260502090516 | 34 | 0.0 | 0.0 | 0.00 | 0.00 | 0.00 | 76 | 1017.0 | |
| 20260502071516 | 35 | 292 | 1.7 | 3.5 | 0.00 | 0.00 | 0.00 | 77 | 1016.7 |
| 20260502071016 | 35 | 292 | 0.9 | 2.6 | 0.00 | 0.00 | 0.00 | 77 | 1016.7 |
| 20260502070516 | 35 | 301 | 0.9 | 2.6 | 0.00 | 0.00 | 0.00 | 77 | 1016.6 |
| 20260502070016 | 35 | 287 | 0.9 | 3.5 | 0.00 | 0.00 | 0.00 | 77 | 1016.7 |
| 20260502065516 | 35 | 279 | 1.7 | 3.5 | 0.00 | 0.00 | 0.00 | 77 | 1016.7 |
| 20260502065016 | 35 | 288 | 0.9 | 3.5 | 0.00 | 0.00 | 0.00 | 78 | 1016.8 |
| 20260502064515 | 35 | 291 | 1.7 | 3.5 | 0.00 | 0.00 | 0.00 | 78 | 1016.9 |
| 20260502064016 | 35 | 285 | 1.7 | 3.5 | 0.00 | 0.00 | 0.00 | 80 | 1016.8 |
| 20260502063536 | 34 | 0.0 | 0.0 | 0.00 | 0.00 | 0.00 | 80 | 1016.8 | |
| 20260502063016 | 34 | 0.0 | 0.0 | 0.00 | 0.00 | 0.00 | 80 | 1016.8 | |
| 20260502062516 | 34 | 0.0 | 0.0 | 0.00 | 0.00 | 0.00 | 80 | 1016.8 | |
| 20260502062015 | 34 | 0.0 | 0.0 | 0.00 | 0.00 | 0.00 | 79 | 1016.8 | |
| 20260502061515 | 34 | 0.0 | 0.0 | 0.00 | 0.00 | 0.00 | 79 | 1016.9 | |
| 20260502061016 | 34 | 0.0 | 0.0 | 0.00 | 0.00 | 0.00 | 78 | 1017.0 | |
| 20260502060515 | 34 | 0.0 | 0.0 | 0.00 | 0.00 | 0.00 | 77 | 1016.9 | |
| 20260502060015 | 34 | 0.0 | 0.0 | 0.00 | 0.00 | 0.00 | 77 | 1017.0 | |
| 20260502055515 | 34 | 0.0 | 0.0 | 0.00 | 0.00 | 0.00 | 77 | 1017.0 | |
| 20260502055017 | 35 | 0.0 | 0.0 | 0.00 | 0.00 | 0.00 | 77 | 1016.9 | |
| 20260502054515 | 35 | 0.0 | 0.0 | 0.00 | 0.00 | 0.00 | 75 | 1017.0 | |
| 20260502054015 | 35 | 0.0 | 0.0 | 0.00 | 0.00 | 0.00 | 75 | 1017.1 | |
| 20260502053537 | 35 | 0.0 | 0.0 | 0.00 | 0.00 | 0.00 | 74 | 1017.1 | |
| 20260502053017 | 35 | 0.0 | 0.0 | 0.00 | 0.00 | 0.00 | 73 | 1017.0 | |
| 20260502052516 | 35 | 0.0 | 0.0 | 0.00 | 0.00 | 0.00 | 72 | 1016.9 | |
| 20260502052015 | 35 | 0.0 | 0.9 | 0.00 | 0.00 | 0.00 | 72 | 1017.0 | |
| 20260502051515 | 35 | 282 | 0.0 | 1.7 | 0.00 | 0.00 | 0.00 | 71 | 1017.0 |
| 20260502051016 | 35 | 282 | 0.9 | 1.7 | 0.00 | 0.00 | 0.00 | 70 | 1017.0 |
| 20260502050516 | 35 | 282 | 0.0 | 1.7 | 0.00 | 0.00 | 0.00 | 70 | 1017.0 |
| 20260502050016 | 35 | 282 | 0.0 | 0.9 | 0.00 | 0.00 | 0.00 | 69 | 1016.9 |
| 20260502045537 | 35 | 282 | 0.0 | 1.7 | 0.00 | 0.00 | 0.00 | 69 | 1016.9 |
| 20260502045016 | 36 | 282 | 0.9 | 1.7 | 0.00 | 0.00 | 0.00 | 69 | 1016.9 |
| 20260502044517 | 36 | 292 | 0.9 | 1.7 | 0.00 | 0.00 | 0.00 | 68 | 1016.9 |
| 20260502044016 | 36 | 305 | 0.0 | 1.7 | 0.00 | 0.00 | 0.00 | 68 | 1016.8 |
| 20260502043515 | 36 | 305 | 0.0 | 1.7 | 0.00 | 0.00 | 0.00 | 68 | 1016.8 |
| 20260502043015 | 36 | 306 | 0.0 | 1.7 | 0.00 | 0.00 | 0.00 | 68 | 1016.7 |
| 20260502042536 | 36 | 305 | 0.9 | 2.6 | 0.00 | 0.00 | 0.00 | 68 | 1016.7 |
| 20260502042015 | 36 | 294 | 0.9 | 2.6 | 0.00 | 0.00 | 0.00 | 67 | 1016.8 |
| 20260502041517 | 36 | 289 | 0.9 | 2.6 | 0.00 | 0.00 | 0.00 | 67 | 1016.8 |
| 20260502041015 | 36 | 288 | 0.9 | 2.6 | 0.00 | 0.00 | 0.00 | 67 | 1016.8 |
| 20260502040515 | 36 | 288 | 1.7 | 3.5 | 0.00 | 0.00 | 0.00 | 67 | 1016.7 |
| 20260502040015 | 36 | 278 | 1.7 | 3.5 | 0.00 | 0.00 | 0.00 | 66 | 1016.7 |
| 20260502035516 | 36 | 287 | 1.7 | 4.3 | 0.00 | 0.00 | 0.00 | 65 | 1016.7 |
| 20260502035016 | 36 | 300 | 1.7 | 4.3 | 0.00 | 0.00 | 0.00 | 65 | 1016.7 |
| 20260502034516 | 36 | 291 | 1.7 | 2.6 | 0.00 | 0.00 | 0.00 | 65 | 1016.7 |
| 20260502034017 | 36 | 300 | 0.9 | 1.7 | 0.00 | 0.00 | 0.00 | 64 | 1016.8 |
| 20260502033516 | 36 | 301 | 0.9 | 3.5 | 0.00 | 0.00 | 0.00 | 63 | 1016.8 |
| 20260502033016 | 37 | 303 | 1.7 | 3.5 | 0.00 | 0.00 | 0.00 | 63 | 1016.7 |
| 20260502032517 | 37 | 312 | 1.7 | 5.2 | 0.00 | 0.00 | 0.00 | 62 | 1016.7 |
| 20260502032056 | 37 | 306 | 2.6 | 5.2 | 0.00 | 0.00 | 0.00 | 62 | 1016.6 |
| 20260502031516 | 37 | 325 | 2.6 | 4.3 | 0.00 | 0.00 | 0.00 | 61 | 1016.6 |
| 20260502031016 | 37 | 324 | 2.6 | 5.2 | 0.00 | 0.00 | 0.00 | 61 | 1016.5 |
| 20260502030536 | 37 | 320 | 2.6 | 5.2 | 0.00 | 0.00 | 0.00 | 61 | 1016.4 |
| 20260502030016 | 37 | 314 | 1.7 | 4.3 | 0.00 | 0.00 | 0.00 | 60 | 1016.4 |
| 20260502025516 | 37 | 319 | 2.6 | 5.2 | 0.00 | 0.00 | 0.00 | 60 | 1016.4 |
| 20260502025037 | 37 | 325 | 2.6 | 6.1 | 0.00 | 0.00 | 0.00 | 60 | 1016.5 |
| 20260502024516 | 37 | 318 | 3.5 | 7.8 | 0.00 | 0.00 | 0.00 | 61 | 1016.4 |
| 20260502024016 | 37 | 328 | 3.5 | 7.8 | 0.00 | 0.00 | 0.00 | 61 | 1016.3 |
| 20260502023515 | 37 | 324 | 4.3 | 7.8 | 0.00 | 0.00 | 0.00 | 62 | 1016.3 |
| 20260502023036 | 37 | 318 | 3.5 | 6.1 | 0.00 | 0.00 | 0.00 | 64 | 1016.2 |
| 20260502022516 | 37 | 315 | 3.5 | 7.0 | 0.00 | 0.00 | 0.00 | 66 | 1016.2 |
| 20260502022016 | 38 | 301 | 3.5 | 7.0 | 0.00 | 0.00 | 0.00 | 66 | 1016.2 |
| 20260502021515 | 38 | 296 | 3.5 | 6.1 | 0.00 | 0.00 | 0.00 | 67 | 1016.3 |
| 20260502021016 | 38 | 283 | 3.5 | 7.0 | 0.00 | 0.00 | 0.00 | 67 | 1016.2 |
| 20260502020516 | 38 | 279 | 4.3 | 7.8 | 0.00 | 0.00 | 0.00 | 67 | 1016.1 |
| 20260502020016 | 38 | 282 | 4.3 | 7.8 | 0.00 | 0.00 | 0.00 | 67 | 1015.9 |
| 20260502015516 | 38 | 286 | 4.3 | 7.0 | 0.00 | 0.00 | 0.00 | 67 | 1015.9 |
| 20260502015056 | 38 | 291 | 4.3 | 7.0 | 0.00 | 0.00 | 0.00 | 66 | 1015.8 |
| 20260502014516 | 38 | 306 | 3.5 | 8.7 | 0.00 | 0.00 | 0.00 | 67 | 1015.8 |
| 20260502014016 | 38 | 308 | 5.2 | 8.7 | 0.00 | 0.00 | 0.00 | 66 | 1015.8 |